Location: Peebles
(55.6412°N, 3.1714°W)
Time: 08:47:31
(UTC+00:00)

AAUSAT CUBESAT 2 - Visible Passes

Search period start: 30 November 2022 00:00
Search period end: 10 December 2022 00:00
Orbit: 563 x 576 km, 97.5° (Epoch: 29 November)

Date Brightness Start Highest point End Pass type
(mag) Time Alt. Az. Time Alt. Az. Time Alt. Az.
30 Nov ? 03:57:56 10° NE 03:59:51 18° ENE 03:59:51 18° ENE visible
30 Nov ? 05:32:27 10° N 05:35:56 54° NNW 05:35:56 54° NNW visible
30 Nov ? 07:09:19 10° NNW 07:10:53 12° NW 07:12:03 11° WNW visible
30 Nov ? 16:27:25 10° SSW 16:31:13 37° W 16:35:03 10° NNW visible
01 Dec ? 03:59:38 10° NE 04:01:20 17° ENE 04:01:20 17° ENE visible
01 Dec ? 05:34:12 10° N 05:37:26 47° NNW 05:37:26 47° NNW visible
01 Dec ? 07:11:10 10° NNW 07:12:35 12° NW 07:13:32 11° WNW visible
01 Dec ? 16:29:11 10° SSW 16:32:58 35° W 16:36:46 10° NNW visible
02 Dec ? 04:01:19 10° NE 04:02:50 17° ENE 04:02:50 17° ENE visible
02 Dec ? 05:35:56 10° N 05:38:56 42° NNW 05:38:56 42° NNW visible
02 Dec ? 07:13:01 10° NNW 07:14:17 11° NW 07:15:01 11° WNW visible
02 Dec ? 16:30:57 10° SSW 16:34:42 34° W 16:38:29 10° NNW visible
03 Dec ? 04:03:00 10° NE 04:04:19 16° NE 04:04:19 16° NE visible
03 Dec ? 05:37:39 10° N 05:40:25 38° NNW 05:40:25 38° NNW visible
03 Dec ? 07:14:53 10° NNW 07:15:59 11° NW 07:16:32 11° WNW visible
03 Dec ? 16:32:42 10° SSW 16:36:25 33° W 16:40:10 10° NNW visible
04 Dec ? 04:04:41 10° NE 04:05:50 16° NE 04:05:50 16° NE visible
04 Dec ? 05:39:23 10° N 05:41:55 34° NNW 05:41:55 34° NNW visible
04 Dec ? 07:16:46 10° NW 07:17:39 11° NW 07:18:02 10° NW visible
04 Dec ? 16:34:27 10° SSW 16:38:08 32° W 16:41:51 10° NNW visible
05 Dec ? 04:06:21 10° NE 04:07:20 15° NE 04:07:20 15° NE visible
05 Dec ? 05:41:06 10° N 05:43:26 31° N 05:43:26 31° N visible
05 Dec ? 07:18:43 10° NW 07:19:19 10° NW 07:19:32 10° NW visible
05 Dec ? 16:36:12 10° SSW 16:39:51 31° W 16:43:32 10° NNW visible
06 Dec ? 04:08:00 10° NE 04:08:50 14° NE 04:08:50 14° NE visible
06 Dec ? 05:42:47 10° N 05:44:57 28° N 05:44:57 28° N visible
06 Dec ? 16:37:55 10° SSW 16:41:32 30° W 16:45:12 10° NNW visible
07 Dec ? 04:09:39 10° NE 04:10:21 14° NE 04:10:21 14° NE visible
07 Dec ? 05:44:28 10° N 05:46:27 26° N 05:46:27 26° N visible
07 Dec ? 16:39:39 10° SSW 16:43:14 29° W 16:46:51 10° NNW visible
08 Dec ? 04:11:18 10° NE 04:11:52 13° NE 04:11:52 13° NE visible
08 Dec ? 05:46:10 10° N 05:47:58 24° N 05:47:58 24° N visible
08 Dec ? 16:41:22 10° SSW 16:44:55 28° W 16:48:30 10° NNW visible
09 Dec ? 04:12:56 10° NE 04:13:22 12° NE 04:13:22 12° NE visible
09 Dec ? 05:47:50 10° N 05:49:29 22° N 05:49:29 22° N visible
09 Dec ? 16:43:04 10° SSW 16:46:35 27° W 16:50:07 10° NW visible
